XW-2F (40910 NORAD) Tracking and Keplerian Element Data

This shows tracking and keplerian element data for the satellite.

Feedback or suggestion? Click here.




ElementValue
Catalog40910
NameXW-2F
Epoch Orbit39706
Epoch Day325.21311639
Epoch Year2022
RAAN331.8463
Inclination97.473
Eccentricity0.0013311
Argument of Perigee135.5438
Mean Anonmoly289.5506
Mean Motion15.26316683
Decay Rate0.00010736
L11 40910U 15049M 22325.21311639 .00010736 00000+0 41518-3 0 9991
L22 40910 97.4730 331.8463 0013311 135.5438 289.5506 15.26316683397063



Live tracking and technical data element details for XW-2F (NORAD 40910). XW-2F can be tracked NOW for your location showing map with azimuth and elevation plus other details from your city location.







IsCatalogInMostPopularTable: catalog: 40910, numindb: 500
Update: records affected: 1



GetName: 40910 XW-2F

Hit Count: updated at: Fri, 02 Dec 2022 12:09:17 GMT